Location: Marcé
(47.5801°N, 0.3280°W)
Time: 00:20:39
(UTC+01:00)

S-56A Canister/Altair - Pass Details

Date: 09 December 2021
Orbit: 633 x 2499 km, 38.9° (Epoch: 17 January)

Event Time Altitude Azimuth Distance (km) Brightness Sun altitude
Rises 22:49:29 0° 228° (SW) 5,944 12.2 -55.0°
Reaches altitude 10° 22:54:00 10° 222° (SW) 4,743 11.5 -55.6°
Enters shadow 22:54:21 11° 221° (SW) 4,650 11.5 -55.7°
Maximum altitude 23:05:12 38° 161° (SSE) 2,448 - -57.1°
Drops below altitude 10° 23:13:12 10° 97° (E) 3,394 - -58.2°
Sets 23:15:53 0° 89° (E) 4,131 - -58.5°
